Погода в Алексеевке

Россия / Тамбовская область     52°25′29″N   41°06′47″E
темп.,
°C
ветер,
м/с
пор.,
м/с
влажн.,
%
обл.,
%
осадки,
мм/ч
давл.,
гПа
погр.,
м
21 апреля, ср
ср2100:00+8юв81596100 5.7 1002810
03:00+7ю6159388 6.0 1004537
06:00+8ю71494100 0.5 1004626
09:00+10ю71182100 0.6 1006839
12:00+8юз4894100 1.4 1007657
15:00+7зюз6982100 2.2 1012831
18:00+7юз4978100 0.0 1013910
21:00+7ю368771 0.0 1016163
22 апреля, чт
чт2200:00+7ююв489365 0.1 1016215
03:00+5юз4109245 0.4 1017264
06:00+4юз38945 0.0 1019263
09:00+9юз46695 0.0 1020632
12:00+12юз565571 0.1 10211692
15:00+14юз464793 0.1 10201918
18:00+13юз3451100 0.0 102089
21:00+12ююз3457100 0.0 102151
23 апреля, пт
пт2300:00+11ю356199 0.0 102176
03:00+10ю3669100 0.0 1021123
06:00+9ююв3671100 0.0 1021137
09:00+13ю475887 0.0 1021431
12:00+16ююз5638100 0.0 10192456
15:00+15ю564796 0.0 10181691
18:00+12юв367335 0.7 1017249
21:00+10юв49835 0.8 1016183
24 апреля, сб
сб2400:00+9ююв512885 0.2 1014242
03:00+10ююв51281100 0.2 1012311
06:00+9ю41087100 0.4 1011332
09:00+10ю61279100 1.0 10101329
12:00+4зсз6893100 0.9 1011656
15:00+9з466798 1.3 10111250
18:00+8з5770100 1.0 1011968
21:00+6зюз3682100 1.4 1012219
25 апреля, вс
вс2500:00+4зюз498346 0.1 1012189
03:00+3з35833 0.1 1013101
06:00+2зюз48865 0.0 1014251
09:00+6з69605 0.0 10151283
12:00+8зюз81048100 0.4 10152323
15:00+9з81243100 0.8 10152895
18:00+7з7126681 0.3 10161418
21:00+4юз49765 0.3 1017246